Weather History for Francistown, Botswana

Change the Weather History Date:

Wednesday, January 1, 2014

  Actual Average Record
Temperature  
Mean Temperature 69 °F -  
Max Temperature 73 °F 85 °F 93 °F (2001)
Min Temperature 65 °F 66 °F 62 °F (2008)
Cooling Degree Days 4    
Growing Degree Days 19 (Base 50)    
Moisture  
Dew Point 64 °F    
Average Humidity 84    
Maximum Humidity 94    
Minimum Humidity 65    
Precipitation  
Precipitation 0.00 in - - ()
Sea Level Pressure  
Sea Level Pressure 29.98 in    
Wind  
Wind Speed 9 mph ()    
Max Wind Speed 18 mph    
Max Gust Speed -    
Visibility 6.0 miles    
Events Rain    
Averages and records for this station are not official NWS values.
T = Trace of Precipitation, MM = Missing Value Source: Averaged Metar Reports

Daily Weather History Graph

Daily Weather History Graph

Search for Another Location

Airport:

Trip Planner

Search our weather history database for the weather conditions in past years. The results will help you decide how hot, cold, wet, or windy it might be!

Date:

Astronomy

Jan. 01, 2014 Rise Set
Actual Time 5:31 AM CAT 6:55 PM CAT
Civil Twilight 5:06 AM CAT 7:20 PM CAT
Nautical Twilight 4:37 AM CAT 7:49 PM CAT
Astronomical Twilight 4:06 AM CAT 8:20 PM CAT
Moon 5:22 AM CAT (1/1) 6:54 PM CAT (1/1)
Length of Visible Light 14h 13m
Length of Day
13h 23m
Waning Crescent, 0% of the Moon is Illuminated
Jan 1
Waning Crescent
Jan 1
New
Jan 8
First Quarter
Jan 16
Full
Jan 24
Last Quarter

Hourly Weather History & Observations

Time (CAT) Temp. Dew Point Humidity Pressure Visibility Wind Dir Wind Speed Gust Speed Precip Events Conditions
12:00 AM 68.0 °F 66.2 °F 94% 30.01 in 6.2 mi ESE 9.2 mph - N/A   Scattered Clouds
1:00 AM 68.0 °F 66.2 °F 94% 29.98 in 6.2 mi ESE 10.4 mph - N/A   Mostly Cloudy
2:00 AM 67 °F 65 °F 93%  in 1 mi ESE 8.1 mph - - Rain Light Rain
2:00 AM 68.0 °F 66.2 °F 94% 29.98 in 6.2 mi ESE 8.1 mph - N/A Rain Light Rain
4:00 AM 66.2 °F 64.4 °F 94% 29.95 in 6.2 mi ESE 11.5 mph - N/A   Scattered Clouds
5:00 AM 66 °F 64 °F 89%  in 6 mi ESE 10.4 mph - -   Partly Cloudy
5:00 AM 66.2 °F 64.4 °F 94% 29.98 in 6.2 mi ESE 10.4 mph - N/A   Scattered Clouds
6:00 AM 66.2 °F 62.6 °F 88% 29.98 in 6.2 mi ESE 9.2 mph - N/A   Scattered Clouds
7:00 AM 66.2 °F 62.6 °F 88% 29.98 in 6.2 mi ESE 10.4 mph - N/A Rain Light Rain
8:00 AM 67 °F 63 °F 84%  in 6 mi East 15.0 mph - -   Partly Cloudy
8:00 AM 68.0 °F 62.6 °F 83% 30.01 in 6.2 mi East 15.0 mph - N/A   Scattered Clouds
9:00 AM 69.8 °F 62.6 °F 78% 30.01 in 6.2 mi ESE 12.7 mph - N/A   Scattered Clouds
10:00 AM 69.8 °F 60.8 °F 73% 30.01 in 6.2 mi ESE 18.4 mph - N/A   Mostly Cloudy
11:00 AM 73.4 °F 60.8 °F 65% 30.01 in 6.2 mi East 15.0 mph - N/A   Scattered Clouds
12:00 PM 71.6 °F 60.8 °F 69% 30.01 in 6.2 mi ESE 12.7 mph - N/A   Scattered Clouds
1:00 PM 69.8 °F 64.4 °F 83% 29.98 in 6.2 mi ESE 8.1 mph - N/A   Light Drizzle
2:00 PM 71 °F 65 °F 75%  in 6 mi SE 11.5 mph - -   Partly Cloudy
2:00 PM 69.8 °F 64.4 °F 83% 29.98 in 6.2 mi SE 11.5 mph - N/A   Mostly Cloudy
3:00 PM 71.6 °F 64.4 °F 78% 29.95 in 6.2 mi ESE 9.2 mph - N/A   Overcast
4:00 PM 71.6 °F 64.4 °F 78% 29.95 in 6.2 mi ESE 9.2 mph - N/A   Overcast
5:00 PM 71.6 °F 64.4 °F 78% 29.95 in 6.2 mi ESE 10.4 mph - N/A   Overcast
6:00 PM 69.8 °F 64.4 °F 83% 29.95 in 6.2 mi ESE 10.4 mph - N/A   Overcast
7:00 PM 69.8 °F 64.4 °F 83% 29.95 in 6.2 mi ESE 9.2 mph - N/A   Overcast
8:00 PM 68.0 °F 64.4 °F 88% 29.95 in 6.2 mi ESE 6.9 mph - N/A   Scattered Clouds
9:00 PM 68.0 °F 64.4 °F 88% 29.98 in 6.2 mi East 6.9 mph - N/A   Scattered Clouds
11:00 PM 68.0 °F 64.4 °F 88% 30.01 in 6.2 mi East 4.6 mph - N/A   Scattered Clouds